QPF
0.00 0.00 0.00 0.00 0.00 0.00 0.00 0.00 0.00 0.00 0.00 0.00 0.00 0.00 0.00 0.00 0.00 0.00 0.00 0.01 0.01 0.02 0.03 0.04 0.04 0.03 0.03 0.03 0.04 0.06 0.09 0.10 0.09 0.08 0.06 0.04 0.03 0.02 0.02 0.02 0.02 0.02 0.02
0.00 0.00 0.00 0.00 0.00 0.00 0.00 0.00 0.00 0.00 0.00 0.00 0.00 0.00 0.00 0.00 0.00 0.00 0.00 0.00 0.00 0.01 0.02 0.03 0.03 0.04 0.04 0.03 0.04 0.05 0.07 0.10 0.11 0.11 0.09 0.08 0.05 0.03 0.02 0.02 0.03 0.03 0.03
0.00 0.00 0.00 0.00 0.00 0.00 0.00 0.00 0.00 0.00 0.00 0.00 0.00 0.00 0.00 0.00 0.00 0.00 0.00 0.00 0.00 0.00 0.01 0.01 0.02 0.02 0.03 0.03 0.03 0.04 0.06 0.08 0.12 0.13 0.12 0.11 0.08 0.06 0.04 0.04 0.03 0.03 0.03
0.00 0.00 0.00 0.00 0.00 0.00 0.00 0.00 0.00 0.00 0.00 0.00 0.00 0.00 0.00 0.00 0.00 0.00 0.00 0.00 0.00 0.00 0.01 0.01 0.01 0.01 0.02 0.02 0.03 0.03 0.05 0.06 0.09 0.13 0.14 0.13 0.10 0.08 0.07 0.05 0.05 0.04 0.04
0.00 0.00 0.00 0.00 0.00 0.00 0.00 0.00 0.00 0.00 0.00 0.00 0.00 0.00 0.00 0.00 0.00 0.00 0.00 0.00 0.01 0.01 0.01 0.01 0.01 0.01 0.01 0.02 0.02 0.03 0.04 0.05 0.06 0.09 0.12 0.12 0.11 0.09 0.08 0.07 0.06 0.06 0.06
0.00 0.00 0.00 0.00 0.00 0.00 0.00 0.00 0.00 0.00 0.00 0.00 0.00 0.00 0.00 0.00 0.00 0.00 0.00 0.01 0.01 0.01 0.01 0.01 0.01 0.01 0.01 0.01 0.01 0.02 0.03 0.04 0.05 0.07 0.08 0.11 0.12 0.12 0.12 0.12 0.10 0.09 0.10
0.00 0.00 0.00 0.00 0.00 0.00 0.00 0.00 0.00 0.00 0.00 0.00 0.01 0.01 0.01 0.01 0.01 0.01 0.01 0.01 0.01 0.01 0.01 0.01 0.01 0.01 0.02 0.02 0.03 0.03 0.03 0.04 0.05 0.05 0.05 0.06 0.08 0.10 0.13 0.13 0.13 0.12 0.11
0.00 0.00 0.00 0.00 0.00 0.00 0.00 0.00 0.00 0.00 0.00 0.00 0.00 0.01 0.02 0.02 0.01 0.01 0.01 0.01 0.01 0.01 0.01 0.01 0.01 0.01 0.02 0.03 0.03 0.04 0.04 0.05 0.06 0.05 0.05 0.06 0.07 0.08 0.09 0.09 0.10 0.10 0.09
0.00 0.00 0.00 0.00 0.00 0.00 0.00 0.00 0.00 0.00 0.00 0.00 0.00 0.01 0.01 0.02 0.02 0.02 0.01 0.02 0.02 0.02 0.01 0.01 0.01 0.01 0.02 0.02 0.02 0.03 0.04 0.05 0.06 0.06 0.06 0.06 0.06 0.06 0.06 0.06 0.07 0.08 0.08
0.00 0.00 0.00 0.00 0.00 0.00 0.00 0.00 0.00 0.00 0.00 0.00 0.01 0.01 0.02 0.02 0.02 0.03 0.04 0.04 0.03 0.03 0.03 0.03 0.02 0.02 0.02 0.02 0.02 0.02 0.02 0.02 0.03 0.04 0.04 0.05 0.06 0.07 0.07 0.07 0.07 0.07 0.08
0.00 0.00 0.00 0.00 0.00 0.00 0.00 0.00 0.00 0.00 0.00 0.00 0.01 0.01 0.01 0.02 0.02 0.03 0.05 0.05 0.03 0.02 0.03 0.03 0.02 0.02 0.02 0.02 0.02 0.02 0.02 0.01 0.02 0.02 0.02 0.03 0.04 0.05 0.07 0.07 0.08 0.08 0.08
0.00 0.00 0.00 0.00 0.00 0.00 0.00 0.00 0.00 0.00 0.00 0.00 0.01 0.01 0.01 0.01 0.01 0.01 0.02 0.02 0.02 0.01 0.01 0.01 0.01 0.01 0.01 0.01 0.02 0.02 0.02 0.02 0.02 0.02 0.02 0.02 0.02 0.03 0.04 0.05 0.05 0.05 0.06
0.00 0.00 0.00 0.00 0.00 0.00 0.00 0.00 0.00 0.00 0.00 0.00 0.00 0.01 0.01 0.01 0.00 0.01 0.01 0.01 0.01 0.01 0.01 0.01 0.00 0.01 0.01 0.01 0.01 0.02 0.02 0.02 0.02 0.04 0.04 0.03 0.04 0.04 0.04 0.04 0.04 0.03 0.04
0.00 0.00 0.00 0.00 0.00 0.00 0.00 0.00 0.00 0.00 0.00 0.00 0.00 0.01 0.01 0.01 0.01 0.01 0.01 0.01 0.01 0.01 0.02 0.01 0.01 0.00 0.01 0.01 0.03 0.03 0.03 0.03 0.04 0.05 0.05 0.03 0.03 0.03 0.03 0.02 0.02 0.02 0.02
0.00 0.00 0.00 0.00 0.00 0.00 0.00 0.00 0.01 0.00 0.00 0.00 0.00 0.01 0.01 0.01 0.01 0.01 0.01 0.02 0.02 0.02 0.02 0.02 0.01 0.01 0.01 0.02 0.03 0.03 0.03 0.04 0.04 0.04 0.04 0.03 0.02 0.01 0.01 0.01 0.01 0.02 0.02
0.00 0.00 0.00 0.00 0.00 0.00 0.00 0.00 0.01 0.01 0.00 0.00 0.01 0.01 0.01 0.01 0.01 0.01 0.01 0.01 0.02 0.02 0.02 0.01 0.01 0.01 0.02 0.03 0.04 0.03 0.03 0.03 0.04 0.04 0.03 0.03 0.02 0.01 0.02 0.02 0.02 0.02 0.02
0.00 0.00 0.00 0.00 0.00 0.01 0.01 0.00 0.00 0.01 0.01 0.01 0.01 0.01 0.01 0.01 0.01 0.01 0.01 0.01 0.01 0.01 0.01 0.01 0.01 0.01 0.01 0.01 0.01 0.02 0.02 0.02 0.02 0.02 0.02 0.02 0.02 0.02 0.01 0.02 0.02 0.02 0.01
0.00 0.00 0.00 0.00 0.01 0.01 0.00 0.00 0.00 0.01 0.01 0.01 0.01 0.01 0.01 0.01 0.01 0.01 0.01 0.00 0.00 0.00 0.00 0.00 0.00 0.00 0.01 0.01 0.01 0.01 0.01 0.01 0.01 0.01 0.01 0.01 0.01 0.01 0.01 0.01 0.01 0.01 0.01
0.00 0.00 0.00 0.00 0.00 0.00 0.00 0.00 0.00 0.01 0.01 0.02 0.01 0.01 0.01 0.01 0.01 0.00 0.00 0.00 0.00 0.00 0.00 0.00 0.00 0.00 0.00 0.01 0.01 0.01 0.00 0.01 0.01 0.01 0.01 0.01 0.01 0.01 0.01 0.01 0.01 0.01 0.01
0.00 0.00 0.00 0.00 0.00 0.00 0.00 0.00 0.00 0.01 0.01 0.01 0.01 0.01 0.01 0.01 0.00 0.00 0.00 0.00 0.00 0.00 0.00 0.00 0.00 0.00 0.00 0.00 0.01 0.01 0.01 0.01 0.01 0.01 0.01 0.01 0.02 0.02 0.02 0.02 0.02 0.02 0.02
0.00 0.00 0.00 0.00 0.00 0.00 0.00 0.01 0.00 0.01 0.01 0.01 0.01 0.01 0.01 0.01 0.00 0.00 0.00 0.00 0.00 0.00 0.00 0.00 0.00 0.00 0.00 0.00 0.01 0.00 0.00 0.01 0.01 0.01 0.01 0.02 0.02 0.02 0.02 0.02 0.03 0.03 0.02
0.00 0.00 0.00 0.00 0.00 0.00 0.01 0.01 0.01 0.01 0.01 0.01 0.01 0.01 0.00 0.00 0.00 0.00 0.00 0.00 0.00 0.00 0.00 0.00 0.01 0.00 0.00 0.00 0.00 0.01 0.01 0.01 0.01 0.01 0.01 0.01 0.02 0.01 0.02 0.02 0.02 0.03 0.03
0.00 0.00 0.00 0.00 0.01 0.01 0.01 0.01 0.01 0.01 0.01 0.01 0.01 0.00 0.00 0.00 0.00 0.00 0.00 0.00 0.01 0.01 0.01 0.01 0.01 0.01 0.00 0.00 0.01 0.01 0.01 0.01 0.01 0.00 0.00 0.01 0.01 0.01 0.01 0.01 0.01 0.02 0.02
0.00 0.00 0.01 0.01 0.01 0.01 0.01 0.01 0.01 0.01 0.01 0.00 0.00 0.00 0.00 0.00 0.00 0.00 0.00 0.00 0.01 0.01 0.01 0.01 0.01 0.01 0.01 0.01 0.01 0.01 0.01 0.01 0.01 0.00 0.00 0.00 0.00 0.00 0.00 0.00 0.00 0.01 0.01
0.00 0.00 0.01 0.01 0.01 0.01 0.01 0.01 0.01 0.01 0.01 0.00 0.00 0.00 0.00 0.00 0.00 0.00 0.00 0.00 0.01 0.01 0.01 0.01 0.01 0.01 0.01 0.01 0.01 0.01 0.00 0.00 0.00 0.00 0.00 0.00 0.00 0.00 0.00 0.00 0.00 0.00 0.00
0.00 0.00 0.01 0.01 0.01 0.01 0.01 0.01 0.01 0.00 0.00 0.00 0.00 0.00 0.00 0.00 0.00 0.00 0.00 0.00 0.00 0.01 0.01 0.01 0.00 0.00 0.00 0.00 0.00 0.00 0.00 0.00 0.00 0.00 0.00 0.00 0.00 0.00 0.00 0.00 0.00 0.00 0.00
MSLP
1018.83 1019.03 1019.19 1019.30 1019.36 1019.37 1019.32 1019.20 1019.03 1018.80 1018.50 1018.15 1017.75 1017.32 1016.86 1016.39 1015.95 1015.53 1015.15 1014.81 1014.49 1014.20 1013.92 1013.64 1013.35 1013.06 1012.77 1012.51 1012.28 1012.08 1011.92 1011.78 1011.66 1011.54 1011.41 1011.25 1011.08 1010.90 1010.74 1010.62 1010.55 1010.56 1010.64
1018.35 1018.60 1018.82 1018.99 1019.11 1019.18 1019.18 1019.12 1019.01 1018.82 1018.58 1018.27 1017.91 1017.49 1017.03 1016.55 1016.07 1015.61 1015.17 1014.77 1014.41 1014.07 1013.74 1013.43 1013.12 1012.81 1012.51 1012.23 1011.98 1011.76 1011.58 1011.42 1011.28 1011.13 1010.97 1010.78 1010.57 1010.35 1010.14 1009.96 1009.84 1009.80 1009.83
1017.90 1018.19 1018.46 1018.69 1018.86 1018.97 1019.02 1019.01 1018.94 1018.81 1018.62 1018.37 1018.05 1017.66 1017.22 1016.75 1016.25 1015.75 1015.27 1014.81 1014.39 1013.99 1013.62 1013.25 1012.90 1012.56 1012.22 1011.91 1011.63 1011.38 1011.17 1010.98 1010.81 1010.64 1010.45 1010.24 1010.01 1009.77 1009.53 1009.32 1009.18 1009.10 1009.12
1017.52 1017.85 1018.16 1018.42 1018.62 1018.76 1018.83 1018.86 1018.83 1018.75 1018.62 1018.42 1018.16 1017.83 1017.43 1016.97 1016.47 1015.95 1015.44 1014.93 1014.45 1013.98 1013.54 1013.12 1012.71 1012.30 1011.92 1011.55 1011.22 1010.92 1010.66 1010.43 1010.23 1010.02 1009.82 1009.59 1009.35 1009.10 1008.87 1008.67 1008.53 1008.48 1008.51
1017.22 1017.58 1017.91 1018.19 1018.40 1018.55 1018.64 1018.68 1018.69 1018.65 1018.57 1018.44 1018.24 1017.97 1017.62 1017.20 1016.72 1016.19 1015.65 1015.10 1014.56 1014.03 1013.52 1013.02 1012.53 1012.06 1011.60 1011.17 1010.76 1010.40 1010.08 1009.79 1009.53 1009.29 1009.06 1008.82 1008.58 1008.35 1008.14 1007.98 1007.90 1007.90 1007.99
1017.00 1017.37 1017.71 1017.99 1018.20 1018.34 1018.43 1018.49 1018.51 1018.51 1018.48 1018.41 1018.28 1018.08 1017.79 1017.42 1016.96 1016.44 1015.88 1015.29 1014.70 1014.10 1013.52 1012.95 1012.38 1011.83 1011.30 1010.78 1010.30 1009.86 1009.46 1009.10 1008.78 1008.49 1008.23 1007.97 1007.74 1007.53 1007.37 1007.28 1007.27 1007.36 1007.56
1016.80 1017.17 1017.51 1017.78 1017.98 1018.11 1018.20 1018.25 1018.29 1018.33 1018.35 1018.34 1018.28 1018.14 1017.92 1017.59 1017.17 1016.66 1016.09 1015.48 1014.84 1014.19 1013.55 1012.91 1012.27 1011.65 1011.04 1010.45 1009.89 1009.37 1008.89 1008.46 1008.07 1007.73 1007.42 1007.15 1006.91 1006.73 1006.62 1006.60 1006.69 1006.89 1007.20
1016.58 1016.94 1017.27 1017.52 1017.71 1017.83 1017.90 1017.96 1018.02 1018.09 1018.16 1018.21 1018.21 1018.14 1017.98 1017.70 1017.31 1016.82 1016.25 1015.63 1014.96 1014.28 1013.59 1012.90 1012.22 1011.54 1010.88 1010.23 1009.60 1009.01 1008.47 1007.97 1007.51 1007.11 1006.76 1006.47 1006.23 1006.07 1006.01 1006.05 1006.22 1006.53 1006.97
1016.30 1016.64 1016.94 1017.18 1017.34 1017.45 1017.53 1017.59 1017.68 1017.78 1017.89 1018.00 1018.06 1018.05 1017.94 1017.71 1017.36 1016.89 1016.33 1015.71 1015.04 1014.34 1013.64 1012.93 1012.23 1011.53 1010.85 1010.17 1009.51 1008.88 1008.29 1007.74 1007.24 1006.79 1006.40 1006.08 1005.84 1005.69 1005.65 1005.74 1005.98 1006.37 1006.90
1015.94 1016.25 1016.51 1016.72 1016.86 1016.96 1017.04 1017.13 1017.23 1017.37 1017.53 1017.68 1017.79 1017.83 1017.77 1017.58 1017.27 1016.84 1016.31 1015.71 1015.06 1014.38 1013.70 1013.01 1012.33 1011.66 1010.98 1010.32 1009.66 1009.03 1008.42 1007.85 1007.32 1006.85 1006.44 1006.10 1005.84 1005.69 1005.66 1005.77 1006.04 1006.47 1007.05
1015.52 1015.77 1015.99 1016.16 1016.28 1016.37 1016.45 1016.55 1016.68 1016.85 1017.05 1017.24 1017.39 1017.48 1017.45 1017.31 1017.04 1016.65 1016.17 1015.62 1015.02 1014.40 1013.77 1013.15 1012.53 1011.91 1011.29 1010.67 1010.06 1009.46 1008.88 1008.33 1007.81 1007.34 1006.93 1006.59 1006.32 1006.16 1006.12 1006.22 1006.47 1006.89 1007.46
1015.08 1015.26 1015.42 1015.54 1015.63 1015.70 1015.78 1015.89 1016.04 1016.24 1016.46 1016.68 1016.87 1016.98 1017.00 1016.89 1016.67 1016.34 1015.92 1015.45 1014.93 1014.40 1013.86 1013.32 1012.79 1012.26 1011.73 1011.19 1010.66 1010.13 1009.61 1009.11 1008.64 1008.21 1007.82 1007.49 1007.23 1007.06 1006.99 1007.05 1007.26 1007.62 1008.13
1014.66 1014.77 1014.85 1014.92 1014.96 1015.01 1015.08 1015.19 1015.35 1015.56 1015.80 1016.03 1016.24 1016.37 1016.42 1016.36 1016.19 1015.93 1015.59 1015.21 1014.80 1014.37 1013.95 1013.52 1013.10 1012.68 1012.25 1011.81 1011.37 1010.93 1010.50 1010.08 1009.69 1009.32 1008.99 1008.69 1008.45 1008.27 1008.18 1008.19 1008.33 1008.61 1009.02
1014.32 1014.34 1014.35 1014.35 1014.34 1014.35 1014.40 1014.50 1014.66 1014.87 1015.10 1015.34 1015.54 1015.69 1015.76 1015.74 1015.63 1015.45 1015.21 1014.93 1014.63 1014.33 1014.02 1013.72 1013.41 1013.09 1012.76 1012.42 1012.08 1011.74 1011.41 1011.09 1010.79 1010.51 1010.25 1010.01 1009.81 1009.64 1009.53 1009.49 1009.55 1009.72 1010.01
1014.09 1014.03 1013.96 1013.88 1013.82 1013.79 1013.81 1013.88 1014.02 1014.21 1014.43 1014.65 1014.85 1015.00 1015.09 1015.10 1015.05 1014.94 1014.80 1014.63 1014.45 1014.26 1014.07 1013.87 1013.66 1013.44 1013.20 1012.95 1012.69 1012.44 1012.20 1011.98 1011.77 1011.59 1011.42 1011.26 1011.11 1010.97 1010.85 1010.78 1010.77 1010.85 1011.02
1013.96 1013.82 1013.68 1013.54 1013.42 1013.34 1013.33 1013.37 1013.48 1013.64 1013.83 1014.02 1014.20 1014.34 1014.43 1014.47 1014.47 1014.44 1014.38 1014.32 1014.24 1014.16 1014.07 1013.97 1013.84 1013.68 1013.50 1013.31 1013.12 1012.94 1012.77 1012.64 1012.53 1012.44 1012.36 1012.28 1012.19 1012.09 1011.99 1011.90 1011.85 1011.85 1011.93
1013.89 1013.69 1013.48 1013.29 1013.13 1013.01 1012.97 1012.98 1013.06 1013.18 1013.33 1013.49 1013.63 1013.74 1013.83 1013.89 1013.93 1013.95 1013.97 1013.99 1014.01 1014.02 1014.01 1013.97 1013.89 1013.79 1013.65 1013.49 1013.34 1013.20 1013.09 1013.02 1012.99 1012.98 1012.98 1012.98 1012.96 1012.91 1012.84 1012.76 1012.69 1012.65 1012.66
1013.82 1013.57 1013.32 1013.09 1012.90 1012.77 1012.70 1012.70 1012.75 1012.84 1012.94 1013.05 1013.15 1013.23 1013.30 1013.36 1013.41 1013.48 1013.56 1013.64 1013.73 1013.80 1013.85 1013.86 1013.82 1013.74 1013.63 1013.49 1013.36 1013.24 1013.17 1013.15 1013.17 1013.22 1013.29 1013.36 1013.40 1013.41 1013.38 1013.33 1013.26 1013.21 1013.20
1013.68 1013.39 1013.12 1012.88 1012.69 1012.57 1012.50 1012.49 1012.52 1012.57 1012.64 1012.70 1012.75 1012.78 1012.82 1012.86 1012.92 1013.00 1013.11 1013.24 1013.37 1013.50 1013.59 1013.64 1013.63 1013.57 1013.47 1013.35 1013.23 1013.13 1013.08 1013.09 1013.15 1013.25 1013.37 1013.49 1013.59 1013.65 1013.67 1013.65 1013.61 1013.58 1013.57
1013.42 1013.11 1012.84 1012.62 1012.46 1012.35 1012.31 1012.31 1012.33 1012.36 1012.39 1012.40 1012.39 1012.38 1012.37 1012.37 1012.41 1012.49 1012.61 1012.76 1012.93 1013.08 1013.21 1013.29 1013.31 1013.28 1013.21 1013.11 1013.01 1012.94 1012.91 1012.94 1013.03 1013.17 1013.32 1013.48 1013.62 1013.73 1013.79 1013.82 1013.82 1013.81 1013.83
1013.01 1012.71 1012.46 1012.28 1012.16 1012.11 1012.10 1012.12 1012.15 1012.16 1012.16 1012.12 1012.06 1011.98 1011.92 1011.88 1011.88 1011.94 1012.05 1012.20 1012.37 1012.55 1012.71 1012.82 1012.89 1012.89 1012.86 1012.81 1012.75 1012.72 1012.73 1012.80 1012.92 1013.08 1013.26 1013.45 1013.62 1013.76 1013.86 1013.93 1013.97 1014.00 1014.05
1012.48 1012.20 1012.00 1011.87 1011.81 1011.82 1011.86 1011.91 1011.95 1011.96 1011.92 1011.84 1011.72 1011.58 1011.45 1011.36 1011.31 1011.33 1011.41 1011.55 1011.72 1011.91 1012.09 1012.24 1012.35 1012.42 1012.45 1012.46 1012.47 1012.50 1012.57 1012.68 1012.84 1013.03 1013.24 1013.45 1013.65 1013.81 1013.94 1014.04 1014.12 1014.19 1014.27
1011.88 1011.64 1011.49 1011.43 1011.44 1011.51 1011.60 1011.69 1011.74 1011.74 1011.68 1011.55 1011.38 1011.18 1010.99 1010.83 1010.72 1010.69 1010.72 1010.83 1010.99 1011.18 1011.37 1011.56 1011.72 1011.85 1011.96 1012.06 1012.16 1012.27 1012.41 1012.59 1012.80 1013.03 1013.26 1013.49 1013.71 1013.89 1014.04 1014.17 1014.28 1014.39 1014.51
1011.29 1011.09 1011.00 1011.01 1011.08 1011.21 1011.34 1011.46 1011.52 1011.51 1011.42 1011.26 1011.04 1010.79 1010.54 1010.31 1010.14 1010.05 1010.03 1010.09 1010.22 1010.39 1010.59 1010.80 1011.01 1011.21 1011.39 1011.58 1011.77 1011.98 1012.21 1012.46 1012.73 1013.01 1013.28 1013.53 1013.76 1013.97 1014.14 1014.29 1014.44 1014.58 1014.72
1010.77 1010.62 1010.59 1010.65 1010.78 1010.95 1011.11 1011.24 1011.31 1011.29 1011.18 1010.99 1010.73 1010.43 1010.13 1009.85 1009.62 1009.46 1009.38 1009.39 1009.46 1009.60 1009.78 1009.99 1010.23 1010.47 1010.73 1011.00 1011.29 1011.59 1011.90 1012.23 1012.57 1012.89 1013.20 1013.49 1013.74 1013.97 1014.16 1014.34 1014.51 1014.68 1014.86
1010.38 1010.28 1010.29 1010.39 1010.55 1010.73 1010.91 1011.04 1011.09 1011.06 1010.94 1010.73 1010.45 1010.13 1009.79 1009.47 1009.20 1008.98 1008.83 1008.77 1008.78 1008.85 1008.99 1009.18 1009.41 1009.68 1009.98 1010.31 1010.66 1011.04 1011.44 1011.84 1012.23 1012.61 1012.96 1013.28 1013.56 1013.81 1014.03 1014.24 1014.44 1014.65 1014.85
Thickness
5611 5610 5610 5611 5612 5613 5615 5616 5617 5619 5621 5623 5625 5627 5628 5629 5629 5630 5630 5631 5633 5634 5635 5636 5637 5637 5638 5639 5639 5638 5638 5639 5638 5637 5638 5642 5644 5645 5645 5645 5645 5646 5645
5607 5605 5605 5605 5606 5606 5607 5608 5609 5611 5612 5613 5614 5615 5616 5618 5619 5619 5620 5621 5622 5623 5625 5626 5627 5628 5629 5629 5629 5628 5628 5629 5628 5627 5626 5629 5633 5637 5638 5637 5637 5638 5638
5603 5602 5600 5600 5600 5600 5600 5601 5602 5602 5603 5604 5605 5606 5607 5608 5609 5610 5610 5611 5612 5613 5614 5615 5616 5617 5618 5618 5619 5618 5617 5617 5616 5616 5615 5617 5623 5626 5629 5629 5629 5629 5629
5598 5597 5595 5595 5594 5594 5593 5593 5594 5595 5596 5596 5597 5598 5599 5601 5601 5600 5601 5601 5602 5603 5604 5605 5606 5607 5607 5607 5608 5607 5606 5606 5606 5606 5606 5608 5611 5611 5615 5618 5619 5619 5619
5593 5592 5590 5589 5588 5587 5586 5586 5587 5588 5588 5589 5590 5590 5591 5592 5591 5591 5592 5592 5593 5594 5594 5595 5596 5597 5597 5597 5597 5597 5596 5596 5596 5596 5596 5597 5598 5601 5603 5607 5608 5607 5608
5588 5587 5585 5583 5582 5581 5579 5579 5581 5581 5581 5582 5582 5583 5583 5583 5583 5583 5584 5585 5585 5585 5585 5585 5587 5587 5587 5587 5587 5587 5587 5587 5587 5587 5587 5587 5588 5591 5592 5595 5597 5597 5595
5583 5582 5580 5579 5577 5576 5574 5574 5574 5574 5574 5575 5575 5575 5575 5575 5575 5575 5575 5576 5576 5576 5576 5576 5577 5578 5577 5577 5577 5578 5578 5578 5577 5577 5578 5578 5579 5580 5580 5582 5584 5584 5584
5578 5577 5575 5574 5572 5571 5569 5569 5568 5568 5568 5568 5567 5567 5567 5567 5567 5566 5566 5566 5566 5567 5566 5566 5567 5568 5568 5567 5568 5568 5568 5568 5568 5567 5567 5567 5567 5568 5568 5569 5570 5572 5573
5573 5572 5570 5569 5568 5566 5565 5563 5562 5562 5561 5561 5560 5560 5560 5559 5559 5558 5558 5558 5558 5558 5558 5558 5558 5559 5558 5558 5558 5558 5558 5558 5558 5557 5557 5557 5557 5556 5556 5557 5557 5558 5562
5570 5568 5566 5564 5563 5561 5559 5557 5556 5556 5555 5554 5554 5553 5553 5552 5552 5551 5551 5551 5550 5550 5550 5550 5550 5550 5549 5549 5548 5548 5548 5549 5548 5547 5547 5546 5546 5545 5545 5545 5546 5546 5547
5567 5565 5563 5561 5558 5556 5554 5552 5551 5550 5549 5548 5547 5547 5547 5545 5545 5544 5544 5543 5543 5542 5542 5542 5541 5541 5540 5539 5539 5539 5538 5538 5538 5538 5537 5536 5536 5535 5535 5534 5534 5534 5534
5563 5562 5560 5557 5554 5552 5550 5548 5547 5545 5543 5542 5541 5540 5539 5539 5538 5538 5538 5537 5536 5535 5534 5534 5533 5533 5532 5531 5530 5530 5529 5529 5529 5528 5527 5526 5525 5525 5525 5524 5524 5524 5524
5560 5558 5556 5554 5552 5549 5546 5544 5542 5540 5537 5536 5535 5534 5533 5532 5532 5531 5530 5530 5529 5528 5527 5526 5525 5524 5523 5523 5522 5521 5520 5520 5519 5518 5517 5517 5516 5515 5515 5514 5514 5514 5513
5558 5556 5554 5552 5549 5545 5543 5540 5538 5535 5532 5530 5529 5528 5527 5526 5525 5523 5523 5522 5522 5521 5519 5518 5517 5516 5515 5514 5513 5512 5512 5511 5510 5509 5508 5507 5506 5505 5504 5504 5503 5503 5502
5556 5553 5552 5550 5546 5542 5539 5537 5534 5530 5527 5525 5524 5523 5521 5519 5518 5517 5516 5515 5514 5513 5512 5511 5510 5508 5507 5506 5505 5504 5504 5504 5502 5500 5499 5497 5495 5494 5493 5493 5492 5492 5491
5554 5552 5549 5547 5543 5540 5536 5533 5530 5527 5523 5521 5519 5517 5515 5513 5512 5511 5510 5509 5507 5506 5505 5504 5502 5501 5500 5498 5497 5496 5496 5495 5494 5492 5491 5489 5486 5484 5482 5480 5479 5478 5478
5551 5549 5547 5544 5541 5537 5533 5530 5527 5523 5519 5517 5515 5512 5510 5508 5507 5505 5504 5503 5501 5500 5498 5497 5495 5494 5493 5491 5490 5488 5488 5487 5485 5484 5482 5479 5476 5474 5472 5470 5468 5466 5463
5546 5544 5543 5540 5537 5533 5529 5526 5522 5518 5515 5513 5511 5508 5506 5504 5501 5500 5498 5497 5496 5494 5492 5491 5489 5488 5486 5484 5483 5481 5480 5479 5477 5474 5472 5470 5467 5464 5462 5460 5458 5456 5453
5539 5538 5537 5535 5532 5529 5525 5521 5517 5514 5511 5509 5507 5505 5502 5499 5497 5495 5493 5491 5490 5488 5486 5485 5483 5482 5480 5477 5475 5474 5473 5471 5468 5465 5462 5460 5457 5454 5451 5449 5448 5445 5442
5532 5531 5530 5529 5526 5524 5519 5515 5513 5511 5509 5507 5503 5500 5497 5495 5493 5491 5488 5486 5484 5483 5481 5479 5477 5475 5474 5471 5468 5466 5466 5463 5460 5456 5453 5449 5447 5443 5440 5439 5437 5434 5431
5526 5524 5523 5522 5521 5518 5514 5511 5510 5508 5506 5502 5498 5495 5492 5490 5488 5486 5483 5481 5478 5477 5475 5472 5470 5468 5466 5464 5461 5458 5457 5455 5451 5447 5444 5440 5436 5432 5429 5427 5425 5422 5418
5520 5518 5517 5517 5515 5511 5508 5507 5506 5504 5499 5496 5493 5491 5488 5485 5482 5480 5478 5475 5473 5471 5469 5466 5464 5462 5459 5456 5454 5451 5448 5445 5442 5439 5435 5430 5426 5422 5419 5416 5413 5409 5406
5513 5511 5510 5510 5509 5505 5503 5503 5502 5498 5494 5491 5488 5486 5483 5480 5477 5475 5473 5470 5467 5466 5464 5461 5459 5456 5453 5449 5445 5443 5439 5436 5433 5430 5425 5421 5417 5413 5409 5405 5401 5398 5395
5506 5504 5503 5503 5503 5501 5497 5497 5494 5490 5487 5486 5484 5481 5478 5475 5472 5469 5467 5465 5463 5461 5459 5456 5453 5450 5446 5443 5439 5435 5431 5427 5424 5420 5416 5411 5407 5403 5399 5395 5391 5387 5384
5499 5497 5496 5497 5497 5495 5492 5490 5487 5484 5481 5480 5477 5475 5472 5469 5467 5464 5462 5460 5459 5456 5454 5451 5447 5444 5441 5437 5432 5428 5424 5420 5416 5411 5407 5403 5399 5395 5390 5386 5381 5377 5373
5491 5489 5488 5488 5489 5487 5485 5483 5480 5477 5475 5474 5472 5469 5466 5464 5461 5459 5455 5452 5450 5447 5444 5442 5439 5436 5433 5428 5424 5419 5415 5410 5406 5402 5399 5395 5390 5385 5381 5376 5372 5367 5363